Wind_Speed
18 13 10 8 6 7 4 1 3 2 1 1 2 2 3 4 4 4 3 5 5 6 6 5 4 4 2 2 3 4 5 6 4 8 11 12 9 7 7 5 6 8 13
15 13 10 9 8 6 6 6 6 5 4 3 1 1 2 2 2 4 3 3 3 5 4 6 5 4 6 10 10 10 11 12 11 11 11 11 14 17 16 17 18 17 15
16 14 14 13 11 10 8 6 6 4 3 2 0 1 2 3 3 3 3 4 5 5 5 4 5 6 5 4 4 11 15 15 15 16 17 13 16 18 21 22 24 25 26
16 16 15 13 12 10 8 7 5 4 3 2 2 2 1 2 2 2 3 4 4 6 7 8 7 6 7 8 7 7 7 8 9 10 13 17 18 16 13 16 18 15 15
18 16 15 14 12 10 7 4 2 1 2 1 1 1 2 3 2 4 5 4 4 4 4 5 6 7 7 7 4 8 9 7 9 12 13 14 15 16 17 15 17 18 19
17 16 14 12 10 8 6 5 4 4 3 3 4 4 3 3 8 7 4 3 5 5 4 4 5 6 8 11 11 12 13 14 12 12 14 14 15 15 15 16 17 19 21
19 16 15 12 10 9 8 7 5 5 5 5 5 4 4 6 6 5 5 3 3 4 3 3 2 7 8 10 14 16 15 19 20 18 14 15 18 17 17 19 19 19 21
18 16 15 13 10 8 6 5 5 5 5 5 4 2 2 3 5 5 6 3 4 3 3 4 5 7 11 17 18 15 15 15 14 15 16 18 17 18 18 19 21 23 24
17 16 13 10 8 6 6 5 4 4 3 2 2 1 3 1 3 5 6 6 7 7 7 8 10 9 15 20 20 17 17 17 16 21 25 26 24 23 22 19 20 20 23
17 15 12 9 7 7 5 3 2 3 3 3 3 2 1 1 3 5 6 6 10 11 12 12 17 17 20 21 23 20 21 19 19 21 22 20 20 20 20 21 17 20 21
18 15 12 11 9 6 3 3 3 5 2 2 2 1 2 4 7 8 10 10 11 12 14 14 13 21 24 25 25 27 20 23 25 23 20 19 17 16 17 17 19 22 19
16 13 11 9 8 5 4 4 5 4 2 3 5 3 5 6 10 11 12 12 15 13 13 14 16 22 26 27 25 22 23 23 18 18 19 20 19 17 17 20 22 24 24
15 13 10 8 6 5 6 5 3 2 3 3 5 4 4 6 7 12 14 14 14 13 13 16 21 24 26 24 22 24 20 16 17 17 20 20 20 21 22 21 21 21 22
13 11 9 7 6 7 5 4 4 3 2 2 3 4 5 7 7 8 11 14 14 16 15 18 23 23 23 26 21 20 19 19 20 21 19 20 20 20 19 18 19 19 22
14 11 9 7 8 8 8 6 5 4 3 2 3 4 6 4 8 12 11 10 11 15 21 22 23 25 26 26 23 21 21 22 22 21 21 21 20 20 23 20 19 21 22
14 11 9 9 8 7 6 7 6 3 4 5 5 3 4 9 10 12 12 14 18 23 28 27 27 26 27 27 26 26 27 26 26 26 22 24 24 23 20 19 20 20 22
14 12 10 10 8 7 7 5 3 4 7 8 8 7 10 9 12 16 19 23 26 27 28 24 25 27 30 28 29 29 29 31 32 30 29 29 25 24 23 22 21 20 23
13 13 10 9 6 6 5 4 3 3 5 6 10 13 15 17 17 18 19 22 21 19 21 24 26 27 27 30 29 31 31 31 31 32 31 29 29 27 26 23 22 22 22
12 9 8 7 6 6 4 4 3 5 6 7 9 12 13 18 21 21 20 21 21 24 24 26 27 29 30 31 32 34 35 37 37 37 36 35 33 29 29 28 24 23 25
10 11 9 6 3 3 3 3 4 6 7 8 10 12 14 18 19 19 18 20 23 25 25 27 28 30 32 34 36 42 46 49 50 48 45 41 38 32 30 31 24 25 20
9 8 6 5 5 4 1 3 3 5 6 8 10 12 19 17 17 21 23 23 23 24 26 27 29 31 33 40 50 47 46 45 44 43 40 37 35 37 34 28 27 23 19
10 6 5 6 5 1 1 2 3 4 6 9 11 13 18 17 20 22 23 24 24 24 25 26 29 34 44 46 44 42 40 40 40 39 35 34 30 29 28 28 29 24 22
9 5 5 7 4 2 3 2 3 4 6 8 12 16 18 21 23 24 25 25 25 24 24 25 33 42 46 42 37 34 36 40 41 40 37 28 25 21 21 21 23 21 17
8 5 6 5 3 2 1 2 2 5 8 11 15 18 20 22 24 24 25 26 25 24 24 28 35 44 43 37 30 33 35 33 34 28 16 16 14 14 16 15 18 16 14
7 6 6 5 3 3 2 2 4 8 11 14 18 20 21 22 23 23 25 24 23 24 26 30 36 44 41 30 28 31 30 22 23 16 11 9 9 8 9 10 13 11 12
7 6 8 6 5 3 1 4 7 10 14 17 18 19 21 21 22 23 23 24 23 24 25 35 36 42 37 28 26 28 25 16 15 13 7 3 3 5 7 9 8 7 8
Wind_Direction
179 185 197 197 177 182 196 229 111 117 128 102 77 59 54 36 25 20 22 17 355 345 327 320 336 315 299 250 236 233 183 192 216 214 234 236 234 237 240 255 263 281 286
167 166 159 152 168 173 151 130 138 142 152 153 142 87 50 37 37 69 67 36 5 9 345 343 344 348 310 275 252 237 234 239 250 243 226 225 225 240 246 256 264 265 265
150 141 138 140 145 148 146 139 149 156 182 176 164 38 29 30 23 15 15 41 40 25 10 12 8 5 343 337 304 258 249 245 242 231 230 235 252 255 264 270 273 275 273
149 147 147 151 148 142 150 153 168 185 205 243 264 279 326 357 351 19 6 344 343 329 320 315 314 322 325 330 336 329 315 304 288 277 261 251 251 243 245 272 279 281 274
152 151 154 158 161 162 159 166 182 151 224 229 260 331 3 33 303 346 345 340 350 2 356 21 337 331 327 326 342 326 327 326 318 313 317 309 289 281 273 263 272 273 273
154 159 166 170 172 171 190 214 235 229 231 259 294 308 322 330 328 333 5 38 25 40 31 14 354 357 352 335 328 325 317 313 311 299 293 285 285 291 292 280 274 276 278
163 168 169 166 174 195 207 215 225 248 266 279 286 311 328 327 345 1 30 34 38 5 358 354 353 308 340 329 324 326 327 315 312 306 295 289 286 284 280 279 281 273 270
162 162 168 178 184 181 195 216 241 252 271 292 294 318 67 354 359 3 357 355 325 331 331 321 322 321 307 327 328 324 314 308 299 290 286 290 288 279 266 271 273 275 278
165 166 169 170 173 181 200 218 238 256 263 228 209 184 139 107 358 356 353 312 300 302 294 299 305 312 308 321 323 319 313 310 306 304 302 303 307 293 281 273 268 272 276
169 169 173 169 183 191 203 216 209 191 169 151 209 196 322 16 352 339 325 305 296 298 300 301 308 306 314 319 320 317 311 308 303 298 292 294 297 297 298 291 274 264 268
169 173 173 176 183 195 192 190 163 142 163 132 204 223 279 319 305 303 296 296 288 292 296 298 295 292 304 314 313 311 300 298 306 303 298 285 280 283 280 274 270 278 262
166 170 178 183 165 179 175 148 155 138 136 224 241 274 290 295 299 305 299 295 292 298 296 297 295 297 306 313 317 312 316 315 309 298 293 287 285 284 282 278 270 262 263
175 186 185 183 183 167 152 168 168 114 195 257 271 293 303 299 309 308 305 305 304 309 298 299 315 319 322 322 313 316 319 304 303 303 298 292 287 284 282 283 276 273 269
189 188 186 177 170 164 164 187 184 186 217 254 295 318 318 317 312 309 308 307 309 318 309 306 306 315 312 312 311 307 303 300 296 294 291 289 285 283 281 281 277 274 271
191 179 168 171 163 167 171 183 171 167 178 264 305 326 317 326 298 313 317 306 295 296 298 303 305 304 302 303 301 296 295 298 294 291 288 287 289 286 284 283 279 273 267
176 172 171 174 165 165 185 168 155 158 343 335 337 347 298 303 323 323 315 304 301 303 301 300 301 303 301 299 298 292 289 291 292 291 283 283 279 284 289 290 281 271 272
159 168 167 165 173 183 190 198 222 282 325 344 350 341 328 313 306 307 304 303 301 302 298 300 299 300 297 293 293 290 287 288 292 284 282 281 276 272 278 277 277 273 276
153 160 160 168 170 190 198 219 232 289 316 324 321 319 325 321 317 310 312 308 313 314 305 306 307 303 296 293 292 291 290 288 284 284 282 276 271 264 269 268 269 273 276
142 160 171 169 184 190 218 220 267 307 324 320 318 317 321 318 320 326 325 313 310 311 312 310 308 306 304 302 300 298 296 294 291 286 281 274 270 265 264 263 264 266 273
157 167 157 170 175 166 196 255 304 323 322 319 319 319 322 321 320 321 322 317 313 312 312 310 309 307 305 305 303 297 293 291 288 284 281 275 268 266 256 260 254 266 275
157 147 161 144 140 157 223 307 317 320 321 324 325 319 323 331 335 331 326 323 319 316 314 312 312 309 308 304 306 307 304 300 295 289 284 278 274 267 264 250 256 269 266
162 158 146 148 144 149 353 352 340 332 329 328 332 331 339 341 336 334 332 327 324 320 317 315 316 312 317 318 314 312 307 302 298 292 285 279 272 268 264 261 261 255 266
162 153 145 144 156 73 48 3 343 331 333 335 332 335 337 335 332 331 330 329 325 322 320 319 315 325 331 327 322 321 318 311 306 297 284 262 260 256 258 257 260 262 262
168 161 153 146 146 125 57 26 353 339 341 332 333 334 333 332 332 330 329 328 327 324 324 318 329 335 335 332 334 333 328 330 328 316 293 218 236 242 243 242 253 255 240
188 177 164 157 155 138 89 26 337 336 333 331 334 332 331 331 332 331 330 329 328 328 327 325 336 341 340 341 344 342 343 353 11 37 112 156 208 228 229 237 264 250 229
186 187 172 166 157 146 253 330 331 332 332 331 328 329 331 331 332 330 332 331 330 331 331 334 341 345 348 348 350 350 355 3 17 29 45 84 212 210 212 244 249 225 208
Height
1511 1513 1514 1515 1516 1518 1518 1519 1520 1520 1521 1521 1520 1520 1519 1518 1517 1517 1516 1516 1515 1513 1512 1511 1510 1509 1507 1509 1509 1509 1508 1510 1512 1513 1513 1513 1517 1517 1519 1519 1519 1521 1521
1510 1512 1513 1515 1517 1518 1519 1519 1521 1520 1521 1522 1522 1521 1520 1519 1519 1518 1518 1517 1515 1515 1513 1512 1510 1508 1507 1507 1507 1507 1506 1508 1510 1510 1511 1511 1512 1512 1513 1513 1514 1516 1516
1510 1512 1514 1516 1517 1519 1520 1521 1522 1522 1523 1522 1521 1521 1521 1521 1520 1519 1518 1517 1516 1515 1514 1512 1509 1508 1507 1507 1506 1505 1505 1505 1504 1506 1506 1506 1506 1507 1506 1506 1505 1505 1504
1512 1513 1514 1515 1517 1519 1520 1520 1521 1521 1522 1521 1521 1519 1520 1520 1519 1519 1517 1515 1514 1512 1512 1510 1509 1508 1507 1507 1506 1504 1503 1502 1502 1501 1500 1500 1500 1500 1499 1500 1499 1500 1499
1510 1512 1513 1515 1517 1518 1520 1521 1521 1522 1521 1521 1520 1520 1519 1519 1519 1516 1514 1514 1512 1511 1511 1510 1507 1506 1506 1506 1506 1503 1501 1503 1503 1501 1499 1496 1495 1494 1493 1494 1495 1494 1493
1510 1510 1512 1514 1516 1517 1519 1520 1520 1520 1519 1519 1519 1517 1517 1516 1515 1514 1513 1513 1510 1511 1511 1510 1508 1506 1505 1503 1503 1501 1500 1498 1498 1498 1497 1496 1494 1493 1490 1488 1488 1487 1485
1507 1509 1511 1514 1517 1517 1518 1518 1518 1518 1517 1516 1515 1515 1515 1514 1513 1513 1512 1513 1512 1511 1511 1511 1511 1509 1506 1503 1502 1499 1498 1495 1492 1490 1489 1489 1487 1487 1485 1482 1480 1478 1476
1508 1509 1511 1513 1514 1515 1517 1517 1517 1515 1514 1514 1514 1512 1513 1513 1513 1513 1512 1512 1512 1511 1510 1509 1507 1505 1502 1500 1498 1497 1495 1493 1491 1488 1485 1482 1480 1479 1477 1477 1474 1471 1469
1506 1508 1510 1512 1513 1513 1514 1514 1514 1513 1511 1508 1511 1510 1508 1508 1510 1510 1511 1513 1513 1511 1509 1507 1504 1502 1498 1496 1493 1491 1489 1487 1485 1481 1477 1474 1471 1468 1467 1466 1466 1466 1462
1505 1507 1509 1510 1512 1512 1512 1512 1511 1511 1511 1512 1512 1510 1509 1508 1507 1508 1509 1511 1511 1510 1507 1505 1500 1498 1495 1492 1489 1486 1483 1481 1478 1475 1472 1469 1467 1465 1461 1458 1459 1458 1458
1503 1505 1507 1509 1510 1511 1511 1510 1509 1510 1510 1512 1514 1511 1508 1507 1507 1506 1506 1506 1507 1506 1504 1501 1500 1494 1492 1488 1484 1480 1478 1473 1470 1467 1465 1463 1462 1461 1459 1457 1453 1451 1450
1502 1505 1506 1508 1508 1507 1508 1509 1509 1508 1509 1511 1511 1509 1507 1504 1505 1504 1504 1503 1501 1500 1499 1497 1495 1490 1486 1482 1478 1474 1471 1467 1465 1462 1460 1457 1455 1453 1451 1449 1447 1445 1443
1501 1504 1505 1506 1506 1506 1506 1508 1509 1507 1509 1511 1512 1509 1505 1504 1502 1500 1500 1498 1496 1494 1493 1491 1487 1483 1479 1476 1474 1470 1466 1464 1461 1458 1455 1452 1449 1447 1444 1442 1440 1438 1436
1501 1503 1503 1503 1504 1506 1507 1508 1508 1507 1508 1509 1508 1506 1503 1503 1501 1502 1500 1496 1494 1490 1490 1487 1483 1479 1476 1472 1467 1464 1462 1459 1456 1453 1449 1446 1442 1439 1437 1435 1433 1432 1430
1496 1501 1502 1503 1505 1505 1506 1508 1507 1505 1506 1506 1503 1501 1502 1499 1501 1498 1495 1494 1491 1488 1484 1481 1477 1473 1469 1465 1462 1459 1457 1454 1450 1447 1444 1440 1436 1432 1428 1427 1426 1424 1423
1492 1498 1500 1502 1503 1505 1506 1504 1503 1502 1503 1501 1499 1498 1497 1496 1493 1493 1492 1489 1486 1482 1478 1475 1470 1466 1462 1459 1455 1452 1449 1446 1443 1440 1435 1433 1430 1426 1421 1420 1418 1417 1416
1490 1495 1498 1501 1502 1503 1505 1504 1502 1500 1500 1498 1496 1496 1495 1493 1489 1487 1486 1483 1480 1476 1471 1468 1463 1459 1455 1452 1448 1444 1440 1437 1434 1430 1426 1423 1421 1419 1416 1414 1412 1409 1407
1488 1493 1498 1499 1500 1501 1502 1501 1500 1500 1499 1497 1495 1493 1492 1489 1485 1483 1480 1476 1473 1470 1466 1461 1457 1452 1447 1443 1439 1435 1431 1427 1424 1420 1417 1414 1411 1409 1408 1406 1404 1402 1400
1489 1494 1497 1496 1498 1499 1500 1500 1499 1498 1496 1495 1494 1492 1488 1486 1481 1478 1475 1471 1468 1464 1460 1455 1450 1445 1440 1436 1432 1427 1422 1417 1413 1408 1405 1403 1401 1398 1396 1395 1395 1394 1392
1492 1494 1496 1497 1496 1497 1499 1499 1496 1496 1494 1493 1492 1491 1488 1483 1479 1475 1472 1468 1463 1459 1454 1449 1444 1439 1434 1429 1422 1415 1408 1401 1395 1391 1388 1387 1386 1385 1384 1385 1385 1385 1385
1494 1494 1496 1495 1495 1496 1496 1496 1494 1493 1492 1491 1489 1488 1484 1479 1475 1471 1467 1463 1458 1453 1449 1444 1438 1433 1427 1419 1409 1400 1393 1386 1381 1375 1371 1371 1371 1371 1373 1372 1374 1377 1377
1493 1495 1494 1493 1494 1496 1493 1494 1494 1492 1491 1490 1487 1485 1480 1476 1472 1468 1464 1459 1454 1449 1444 1439 1433 1426 1417 1405 1396 1388 1379 1372 1366 1361 1358 1356 1358 1359 1361 1364 1367 1368 1369
1492 1493 1492 1491 1493 1492 1492 1493 1493 1492 1490 1488 1485 1482 1478 1474 1469 1465 1461 1455 1450 1444 1439 1434 1426 1416 1405 1395 1386 1379 1370 1361 1352 1344 1340 1342 1347 1350 1353 1356 1359 1360 1361
1491 1491 1491 1491 1492 1492 1493 1492 1492 1490 1488 1486 1483 1479 1475 1471 1466 1462 1457 1452 1446 1440 1434 1427 1418 1409 1396 1387 1379 1372 1362 1352 1340 1329 1325 1331 1341 1345 1348 1350 1352 1354 1357
1489 1489 1489 1490 1492 1492 1492 1492 1491 1489 1487 1484 1480 1476 1472 1468 1463 1459 1454 1448 1441 1435 1429 1422 1412 1402 1391 1381 1375 1367 1358 1350 1341 1334 1332 1336 1340 1343 1345 1348 1350 1351 1353
1487 1488 1489 1490 1491 1491 1492 1491 1490 1487 1484 1481 1477 1473 1469 1464 1460 1455 1450 1444 1438 1432 1425 1417 1408 1397 1387 1378 1372 1365 1357 1351 1347 1343 1341 1341 1343 1343 1345 1346 1347 1349 1351